Temp
22 22 23 25 26 26 26 25 26 28 28 24 24 25 26 27 25 23 23 20 19 17 15 14 13 12 12 12 11 11 10 9 8 9 10 12 11 10 11 11 11 11 10 10
21 22 25 27 25 24 24 24 25 26 26 23 24 24 26 25 23 21 21 19 18 17 17 15 13 13 12 11 11 11 10 9 9 9 9 9 10 11 10 9 10 10 9 8
23 25 25 25 23 23 24 24 24 24 25 24 24 24 25 23 20 19 18 18 16 16 16 15 13 12 11 10 10 10 9 9 8 8 10 10 11 12 11 11 9 9 8 7
23 25 23 23 23 24 23 25 23 22 22 22 23 22 25 23 20 19 19 18 17 16 15 14 12 10 9 9 8 8 8 8 7 7 8 8 9 10 10 10 9 8 7 7
23 23 22 22 23 24 23 22 21 22 22 22 23 23 25 26 22 21 20 18 16 14 13 12 9 9 9 9 8 8 8 7 6 5 5 6 6 6 7 7 7 8 7 6
23 23 22 23 23 23 22 20 21 21 22 20 22 23 24 26 23 23 21 18 16 12 11 10 9 9 9 8 7 8 8 8 6 5 5 4 4 3 4 3 3 4 5 5
20 21 22 22 20 21 20 21 20 20 20 20 23 22 24 24 23 23 20 18 16 13 11 10 10 9 8 8 7 6 7 7 5 4 4 3 3 4 4 2 2 1 2 1
19 19 21 21 21 21 20 21 21 20 21 23 22 20 22 23 21 20 19 18 15 11 10 10 9 9 8 8 5 5 6 5 4 3 3 2 2 2 2 1 1 1 0 0
20 21 23 21 21 22 21 19 22 20 21 19 21 24 21 20 18 17 17 16 13 10 10 9 9 8 8 7 4 3 4 4 3 2 2 2 1 1 1 1 0 0 -0 -0
21 20 21 20 21 21 21 21 18 18 17 18 21 22 23 17 16 16 16 15 11 10 9 10 10 9 7 5 4 2 2 2 2 2 1 1 1 1 0 0 -0 -0 -0 -1
21 20 19 19 19 20 20 19 19 20 19 18 19 21 21 18 18 16 16 15 11 9 10 10 10 9 7 5 4 2 2 2 1 1 1 1 1 1 0 -0 -1 -1 -1 -1
20 19 19 19 21 21 22 20 19 17 17 18 19 19 22 21 20 19 18 16 12 10 11 12 10 9 7 5 4 3 2 2 1 1 1 1 1 1 1 -0 -1 -1 -2 -2
19 17 17 18 20 20 19 21 20 19 19 18 17 18 21 20 20 20 20 17 12 11 11 11 10 8 7 4 3 2 2 2 2 3 2 2 2 1 1 1 0 -0 -0 -0
15 17 17 17 18 16 15 18 19 19 16 16 17 19 21 18 19 20 19 17 12 11 11 11 10 8 6 4 3 3 2 2 2 2 2 1 1 1 0 -0 0 -0 -0 -0
13 14 17 18 19 14 14 14 16 16 17 13 17 17 19 20 20 18 18 15 12 10 11 11 9 7 4 3 3 3 3 2 2 2 1 0 0 -0 -1 -1 -1 -1 -1 -1
14 12 14 14 15 18 17 18 18 18 18 17 18 18 20 21 21 21 18 14 12 11 10 10 9 6 4 3 3 2 3 2 1 1 0 -0 -1 -1 -2 -2 -2 -2 -2 -3
14 13 13 13 16 16 14 17 18 18 19 19 18 19 21 21 21 19 18 15 12 11 10 9 7 5 4 3 2 2 2 2 1 0 -0 -1 -2 -3 -3 -3 -3 -4 -4 -4
9 10 10 11 13 11 16 18 19 18 19 20 20 20 21 21 20 19 19 15 11 10 8 6 4 3 2 1 2 2 2 1 0 -1 -2 -3 -3 -3 -4 -4 -5 -5 -5 -5
14 13 11 10 13 15 17 18 15 16 16 18 18 19 20 20 17 13 14 13 11 8 5 2 2 2 1 -0 -0 1 1 1 -1 -2 -4 -4 -5 -5 -5 -5 -5 -5 -5 -5
14 14 12 12 11 11 15 18 18 17 13 17 18 18 18 15 13 14 11 9 6 3 1 0 -0 -1 -1 -1 -1 -0 -0 -1 -3 -3 -3 -4 -5 -6 -6 -6 -6 -6 -6 -6
11 12 11 11 11 13 16 17 17 12 15 16 17 17 16 13 10 10 5 2 1 1 -0 -1 -2 -2 -3 -2 -2 -2 -2 -3 -3 -4 -4 -5 -4 -5 -5 -5 -6 -6 -6 -5
11 11 12 12 11 10 17 16 13 14 13 14 13 14 12 6 5 2 1 0 -0 -1 -1 -2 -2 -2 -2 -2 -2 -3 -4 -4 -4 -4 -5 -5 -5 -5 -5 -5 -5 -5 -5 -5
12 12 12 13 13 11 14 14 14 12 13 12 12 11 7 4 2 1 0 -0 -1 -1 -1 -1 -1 0 1 0 -0 -1 -3 -4 -4 -5 -6 -5 -5 -5 -4 -5 -5 -4 -5 -5
15 15 12 12 14 14 13 14 12 12 12 11 11 10 6 2 1 0 -0 -1 -1 -1 -1 0 1 2 2 1 1 -0 -1 -1 -1 -2 -3 -4 -4 -4 -4 -4 -5 -6 -6 -6
13 13 13 13 14 12 13 13 13 11 10 10 9 8 3 2 1 0 -0 -1 -1 -1 0 1 1 1 1 1 0 -0 -0 -0 -1 -2 -2 -3 -3 -4 -6 -8 -7 -7 -9 -9
14 12 12 12 12 11 12 13 12 10 9 9 9 6 4 3 1 1 -0 -1 -1 -1 1 1 1 0 0 -0 -1 -1 -1 -1 -1 -2 -2 -3 -3 -4 -3 -4 -8 -9 -10 -10
Height
776 778 770 759 757 754 758 763 760 749 746 765 771 764 755 752 763 773 777 785 792 798 803 806 807 807 805 804 803 801 799 797 794 793 791 789 788 787 785 785 784 783 781 780
776 773 752 745 757 761 765 767 763 753 751 770 766 760 749 750 765 776 781 790 793 796 798 804 806 807 807 807 805 804 802 800 798 797 795 793 791 789 788 787 786 785 784 782
763 748 748 753 765 769 763 764 760 762 755 757 759 759 743 755 771 781 789 793 797 796 797 802 806 808 810 810 809 808 806 804 802 800 797 794 792 790 789 789 787 785 786 784
756 747 757 758 763 760 764 747 764 770 772 769 754 764 742 748 770 774 779 788 793 798 800 803 808 812 813 813 812 811 809 807 805 803 801 798 796 793 793 791 790 789 787 786
751 753 755 758 753 751 762 763 768 768 768 762 755 759 735 724 753 760 767 779 791 800 805 807 812 814 813 813 812 811 809 807 806 805 803 801 800 798 796 794 792 792 790 787
747 743 750 749 749 753 760 772 771 768 767 772 752 750 733 718 739 743 759 775 786 800 806 810 813 813 813 814 813 811 809 808 807 806 805 804 803 802 799 797 794 794 792 790
758 753 749 748 760 761 765 768 773 769 766 763 736 748 731 728 738 741 758 772 784 798 806 809 810 812 814 814 814 813 811 810 809 808 806 805 804 803 800 799 796 795 793 792
752 756 749 748 745 753 759 758 762 766 752 737 738 751 734 729 742 752 759 769 786 801 807 808 811 812 813 814 816 816 813 813 812 810 808 807 805 804 804 800 797 796 794 792
738 736 725 738 741 742 747 761 747 758 752 761 744 724 736 742 751 759 764 771 787 800 804 809 811 812 813 814 817 817 816 815 814 813 809 808 807 806 805 801 800 799 792 792
727 738 731 741 739 740 739 744 769 765 772 764 737 728 719 747 756 758 762 770 787 798 804 806 806 810 812 815 817 818 817 817 816 814 811 810 808 807 805 804 802 798 793 793
727 732 738 743 743 737 746 754 751 750 751 757 746 728 726 739 743 753 756 764 784 795 798 802 805 808 812 814 816 818 818 818 817 815 813 811 809 808 806 804 803 800 796 794
727 731 736 733 728 728 727 736 745 757 758 750 745 732 716 727 731 738 748 755 775 789 792 795 801 806 812 813 816 817 819 819 818 816 814 812 811 809 808 807 805 803 800 796
728 740 745 739 731 727 733 725 733 736 737 744 752 738 721 726 729 730 736 748 773 781 786 791 798 804 809 813 815 818 818 818 817 816 814 813 813 811 810 808 807 806 804 799
739 738 736 738 731 740 748 732 727 727 745 743 738 731 721 732 734 731 736 747 767 776 781 787 793 802 808 813 815 817 819 817 817 817 816 815 814 813 811 810 809 807 805 804
752 747 736 731 724 743 749 751 742 737 736 754 736 734 727 721 722 727 732 750 766 772 778 783 790 799 809 812 814 817 818 816 817 818 818 816 816 815 814 812 812 810 810 809
747 760 752 745 738 725 727 726 720 721 721 724 726 725 716 711 708 711 725 746 760 768 776 782 789 798 806 810 813 817 816 816 818 819 819 818 817 817 816 816 815 814 813 812
744 745 745 740 732 730 733 712 718 713 707 711 715 708 698 700 703 711 716 736 752 765 773 781 790 798 805 809 813 815 816 817 819 820 820 820 820 819 819 819 818 816 816 815
757 756 756 743 737 744 714 706 704 705 700 699 699 697 694 696 700 709 713 730 749 762 774 786 793 799 806 810 812 814 816 818 820 821 822 821 822 822 822 822 820 819 820 819
735 735 743 746 728 715 706 699 710 707 707 702 702 697 695 697 708 727 727 734 746 762 778 789 795 800 806 810 813 815 817 819 821 823 823 823 824 825 825 824 823 822 822 821
724 726 736 734 735 726 705 699 697 700 711 701 699 696 698 711 719 718 738 746 757 768 781 791 796 802 807 810 813 816 818 821 823 824 824 826 826 827 827 826 826 825 824 824
727 726 729 728 731 715 698 697 702 722 704 700 696 697 700 715 728 733 750 760 765 775 785 793 799 802 807 810 814 817 820 823 825 825 827 827 828 829 829 829 829 828 828 827
719 719 715 718 723 722 692 694 708 705 708 709 708 709 716 735 744 754 760 765 772 779 788 794 799 803 807 811 815 819 821 824 825 826 828 829 830 831 831 832 831 830 829 828
708 707 709 706 701 711 702 701 703 711 710 713 714 717 731 743 752 759 764 771 777 783 789 794 798 801 805 809 813 816 820 824 825 827 829 831 831 832 833 833 832 831 830 828
692 693 702 706 696 695 701 702 708 711 712 716 718 724 735 746 755 760 768 775 780 785 789 793 796 799 803 808 811 815 818 821 823 826 829 831 832 833 833 833 834 834 833 832
697 694 695 696 694 700 700 701 705 712 716 717 721 729 742 749 753 763 770 776 781 785 788 791 795 800 805 809 812 815 817 820 823 826 828 830 832 833 836 837 837 837 839 838
693 693 697 690 698 700 699 698 705 713 718 720 724 733 742 747 754 764 771 777 781 785 788 792 796 801 806 809 813 816 818 821 823 825 828 830 831 833 834 835 839 839 839 840
Wind_Speed
15 11 14 19 17 17 10 11 13 12 7 5 14 18 12 10 2 7 4 1 3 4 5 6 8 10 11 13 14 16 18 19 18 16 14 11 11 11 11 10 11 12 13 14
9 17 18 12 5 10 12 14 15 14 7 5 16 18 14 5 7 5 4 6 3 2 3 6 8 10 12 13 15 15 17 18 18 16 15 11 10 8 9 11 10 12 13 12
17 1 10 12 11 14 15 16 14 13 7 12 19 19 25 11 7 8 7 2 2 2 4 5 7 10 11 13 13 13 14 15 16 17 14 14 10 6 11 11 13 13 13 13
15 19 10 12 16 14 15 14 10 10 10 9 6 9 2 16 14 14 11 7 3 2 4 5 9 9 10 10 10 11 12 14 15 16 15 15 13 13 13 12 14 13 12 13
12 13 15 18 18 13 13 2 7 10 11 13 17 11 13 13 17 14 13 9 5 4 3 5 6 7 9 11 12 12 11 12 13 14 15 14 14 13 13 12 14 13 12 11
19 2 12 15 9 10 2 7 9 10 11 12 19 18 11 11 12 13 10 9 8 6 3 3 3 5 8 10 11 12 14 13 15 15 13 13 13 12 12 14 12 14 14 14
15 16 11 7 11 10 13 11 6 10 9 10 3 7 12 8 9 4 10 8 8 7 4 2 2 3 5 8 10 11 11 12 13 13 13 13 13 12 11 12 13 13 13 14
16 16 21 17 16 11 19 15 8 10 10 10 8 7 3 9 11 8 5 8 9 7 5 4 2 3 5 6 9 10 11 11 12 12 12 12 13 12 11 11 12 12 13 15
15 15 21 11 17 17 12 16 14 16 16 12 12 16 10 9 12 10 10 10 10 9 8 6 3 2 3 6 7 8 10 10 11 11 11 11 12 12 12 13 11 10 13 15
7 9 12 9 12 13 12 8 7 8 7 17 15 16 10 16 13 12 13 13 11 10 9 7 3 2 3 4 5 7 8 9 9 9 10 11 12 12 13 13 14 15 15 16
10 8 10 11 14 14 12 11 10 10 14 12 14 12 6 11 12 14 14 14 15 13 11 7 6 4 4 3 4 5 6 6 7 8 9 10 11 12 13 15 15 15 16 17
16 6 12 16 12 17 18 21 19 11 17 12 13 17 2 7 7 11 14 16 17 15 12 9 7 5 3 4 4 4 4 5 6 6 8 9 10 11 12 12 13 14 15 16
7 6 9 14 13 9 15 21 19 20 16 23 14 10 4 2 4 8 10 16 17 16 14 11 9 7 5 4 4 3 3 3 4 5 7 8 10 11 12 12 12 13 14 15
4 9 12 15 16 2 6 19 19 21 15 18 20 24 21 8 9 10 8 16 17 16 15 12 10 9 6 5 4 3 3 4 4 5 7 9 10 11 12 12 13 14 15 15
4 9 16 21 23 11 11 13 18 18 17 12 18 19 21 17 12 18 13 15 15 17 16 14 11 10 9 7 6 4 3 5 4 6 7 9 9 11 12 12 13 13 14 15
11 9 17 22 23 22 22 22 26 22 23 23 23 25 23 22 20 16 17 16 17 17 16 14 12 13 11 9 8 6 5 6 6 6 7 8 10 11 12 12 12 13 14 15
16 13 15 21 20 20 18 29 23 25 26 24 23 24 24 20 17 13 12 18 17 17 16 15 13 14 13 11 9 8 7 7 7 7 8 9 10 11 12 12 12 14 14 14
8 9 6 6 11 13 13 17 25 21 24 23 24 22 22 18 14 9 9 16 15 15 14 14 16 16 15 13 10 9 8 8 8 9 10 10 10 10 10 12 13 13 13 14
20 15 8 7 12 16 19 15 6 11 17 17 19 19 18 13 2 4 5 13 14 15 17 17 18 18 16 14 11 10 10 9 9 10 11 11 11 11 11 13 13 13 12 13
20 18 13 12 14 17 19 20 13 10 14 16 20 19 16 8 8 7 9 13 16 22 22 18 18 17 15 14 13 12 11 10 10 9 10 10 11 11 12 12 12 12 12 13
5 9 16 15 14 16 24 24 2 11 14 7 6 5 5 10 3 13 15 14 23 23 21 21 18 16 15 14 14 13 13 12 11 10 9 10 10 11 10 11 11 11 10 10
9 7 10 13 17 18 14 2 12 5 0 1 2 1 8 12 14 12 14 16 18 21 22 20 19 18 17 16 16 15 14 12 11 11 10 10 10 10 10 9 9 10 9 11
16 13 11 11 6 6 6 9 8 3 3 2 3 6 14 15 14 14 14 14 17 21 22 21 20 19 18 17 16 15 15 13 12 12 11 10 10 9 9 11 10 10 11 13
18 14 9 8 11 14 9 8 6 6 4 4 7 11 13 14 15 14 13 13 16 20 22 21 20 18 17 15 14 15 15 14 12 11 10 9 9 10 9 10 11 13 14 13
9 8 9 14 16 5 8 13 10 6 4 7 9 13 14 16 16 17 14 13 18 19 20 21 19 18 17 16 15 14 13 12 12 10 9 9 8 8 11 12 12 12 14 15
12 13 10 12 3 10 4 9 11 10 9 10 13 14 14 15 17 17 13 20 21 19 19 18 19 18 18 16 15 13 12 11 11 11 9 7 7 6 6 7 9 11 11 11
Wind_Direction
205 213 215 218 219 258 291 278 273 275 263 236 257 262 262 252 155 227 225 161 110 86 82 47 39 34 26 25 19 17 14 14 17 15 9 359 357 9 17 12 9 6 5 1
182 228 235 249 277 245 238 250 255 261 263 294 265 267 258 192 211 262 237 180 155 123 79 59 38 37 36 29 24 22 20 16 14 9 10 3 352 359 10 9 10 6 4 5
222 306 204 243 220 233 235 248 258 269 264 251 264 267 250 146 176 180 202 177 148 39 31 49 48 33 23 19 14 19 17 14 14 9 4 2 11 7 8 3 6 7 360 0
237 244 205 224 231 222 252 237 240 261 253 263 109 279 181 181 190 197 191 202 176 135 96 54 30 23 13 11 8 8 12 13 13 12 9 10 359 353 354 352 352 354 1 359
226 223 205 226 228 232 259 148 226 243 251 266 262 264 268 237 181 199 195 182 171 100 64 51 37 16 15 15 14 12 6 12 11 13 16 11 4 355 345 348 341 342 346 356
247 247 209 230 216 198 224 207 216 233 250 256 250 241 272 221 192 191 170 166 161 154 113 74 52 27 26 16 10 7 8 16 14 14 14 14 3 358 357 356 355 342 339 342
219 210 215 212 175 199 194 205 232 220 210 246 149 268 255 129 151 139 168 180 157 156 147 138 87 45 23 13 10 5 5 9 10 11 12 11 9 0 2 2 359 354 349 347
212 209 207 199 210 189 208 213 231 248 247 276 121 232 210 93 124 130 157 167 154 163 175 151 93 24 27 20 19 6 6 10 11 13 15 14 14 9 0 10 8 4 359 352
202 223 178 182 211 237 193 221 249 273 277 271 254 259 134 143 148 167 174 173 169 184 181 171 173 86 38 32 26 10 7 10 11 12 18 22 21 20 13 15 15 9 20 4
225 179 187 166 204 232 234 222 212 229 255 244 255 254 277 177 185 189 188 188 179 188 185 193 173 119 66 57 36 20 16 12 10 19 27 28 30 29 26 24 20 20 27 15
232 246 168 154 205 191 199 223 226 245 237 261 271 272 66 167 191 195 197 193 178 190 190 191 182 155 110 86 61 37 25 19 19 27 30 33 35 34 33 29 26 22 24 24
217 235 227 206 219 231 231 212 226 223 238 258 267 269 164 164 190 195 196 190 175 191 192 190 170 158 126 98 67 52 42 31 33 38 42 40 39 36 37 33 30 25 24 25
179 227 232 249 258 241 235 235 218 245 238 248 249 245 117 152 228 211 211 177 175 188 186 184 174 162 143 115 109 91 71 48 46 46 51 46 39 37 36 35 33 31 28 32
356 246 246 242 239 156 253 256 254 251 236 252 250 261 267 189 265 285 203 164 182 185 187 189 169 155 139 137 131 133 111 84 56 47 49 49 41 38 35 34 32 32 29 27
29 257 250 252 259 178 239 249 259 250 254 243 265 260 264 279 284 211 206 171 190 183 190 191 170 152 155 152 148 144 133 95 82 72 59 52 46 44 41 39 35 36 33 29
181 237 253 267 280 266 265 254 251 260 247 249 255 257 260 263 273 269 177 181 194 192 187 181 165 157 159 158 152 152 124 102 88 76 65 57 53 49 44 43 42 42 36 32
252 241 246 252 244 258 265 255 266 264 261 264 263 265 270 277 282 242 193 182 197 191 187 174 158 161 159 156 156 145 129 115 96 85 73 65 58 53 47 46 47 47 42 38
241 233 240 257 278 257 249 245 248 268 257 260 260 264 272 277 286 304 222 169 173 184 169 160 162 155 158 155 145 145 133 118 105 86 75 66 60 56 52 51 51 49 46 45
233 247 254 247 254 263 268 249 235 254 264 271 281 278 275 285 107 46 145 164 164 147 151 154 159 153 155 152 150 143 131 124 107 89 75 68 64 61 58 55 51 49 49 46
234 237 235 248 251 256 260 265 311 351 261 259 255 260 267 140 203 201 160 130 122 124 135 143 142 142 146 147 150 139 131 115 97 93 86 78 71 64 60 56 52 51 50 46
186 222 229 238 249 259 264 271 224 243 267 341 315 299 236 186 5 110 118 117 119 131 137 143 144 137 140 140 137 129 127 122 119 101 93 84 77 71 65 60 54 52 49 49
231 217 218 231 244 255 248 164 214 290 342 304 3 216 130 111 117 111 119 125 129 135 142 148 144 146 152 151 146 136 129 128 119 111 98 89 83 77 70 64 60 54 46 46
242 250 267 251 277 227 266 222 227 250 273 215 166 146 134 135 133 134 133 134 134 141 148 150 149 152 154 156 155 145 144 140 129 116 108 99 92 84 73 62 51 46 43 41
255 217 229 260 261 237 240 200 213 216 228 176 147 143 143 144 142 136 139 139 144 152 154 157 156 155 153 152 150 146 149 146 136 127 119 107 92 80 69 65 57 49 39 38
264 305 261 251 258 243 246 246 224 200 194 164 145 146 150 148 144 149 149 150 150 157 160 160 159 154 152 151 145 144 145 141 135 130 124 113 106 102 87 71 60 65 55 49
268 255 251 258 299 251 296 219 208 182 189 168 157 143 154 154 153 155 153 154 157 157 162 159 154 153 153 147 144 143 143 144 140 133 124 114 110 100 98 115 96 79 77 72